Regional Weather Roundup
Issued by NWS

Home | Current Version | Previous Version | Graphics & Text | Print | Product List | Glossary On
Versions: 1 2 3 4 5 6 7 8 9 10 11 12 13 14 15 16 17 18 19 20 21 22 23 24 25 26 27 28 29 30 31 32 33 34 35 36 37 38 39 40 41 42 43 44 45 46 47 48 49 50
000
ASUS43 KMPX 242110
RWRMN
WEATHER ROUNDUP FOR MINNESOTA
NATIONAL WEATHER SERVICE TWIN CITIES/CHANHASSEN MN
400 PM CDT MON APR 24 2017


NOTE: "FAIR" INDICATES FEW OR NO CLOUDS BELOW 12,000 FEET WITH NO
SIGNIFICANT WEATHER AND/OR OBSTRUCTIONS TO VISIBILITY. N/A MEANS
CURRENT SKY AND/OR WEATHER CONDITIONS ARE NOT AVAILABLE.

MNZ060>063-068>070-242200-
   Twin Cities Metro

CITY           SKY/WX    TMP DP  RH WIND       PRES   REMARKS
TWIN CITIES    CLOUDY    70  27  20 S18G29    29.61F
ST PAUL        CLOUDY    69  29  22 S21G37    29.62F
CRYSTAL        CLOUDY    69  26  20 S15G24    29.59F
BLAINE         CLOUDY    70  28  21 S20G30    29.61F
LAKEVILLE      CLOUDY    68  32  26 S16G23    29.61F
EDEN PRAIRIE   CLOUDY    70  27  20 S20G26    29.60S
SOUTH ST PAUL  CLOUDY    69  28  20 S16G26    29.61F
LAKE ELMO      CLOUDY    68  32  26 S15G21    29.64S
$$
MNZ001>005-007-008-013>017-022>024-027-028-242200-
   Northwest Minnesota

CITY           SKY/WX    TMP DP  RH WIND       PRES   REMARKS
BEMIDJI        RAIN      45  39  79 E9        29.56S
HALLOCK        LGT SNOW  36  32  87 NE13      29.67S
ROSEAU         LGT SNOW  34  28  80 NE14      29.67F WCI  24
WARROAD        LGT SNOW  34  28  80 NE12G17   29.69S VSB 3/4 WCI  25
CROOKSTON      CLOUDY    37  37 100 E12G17    29.59S
FOSSTON        LGT RAIN  43  39  87 E12       29.56S
DETROIT LAKES  RAIN      50  46  87 SW3       29.54S
MOORHEAD       CLOUDY    52  45  76 N10       29.52S
PARK RAPIDS    LGT RAIN  59  38  45 S13       29.52F
MAHNOMEN       LGT RAIN  46  42  85 E10       29.54R
$$
MNZ006-009>011-018-025>026-242200-
   North Central Minnesota

CITY           SKY/WX    TMP DP  RH WIND       PRES   REMARKS
BAUDETTE       LGT SNOW  33  31  92 E10       29.66F FOG     WCI  25
FLAG ISLAND    SNOW      32  30  93 NE12      29.72S VSB 1/2 WCI  23
INTL FALLS     CLOUDY    38  32  79 E13G23    29.66F
WASKISH        LGT RAIN  39  36  87 NE9       29.61F
BIG FORK       CLOUDY    45  34  65 E15G21    29.61F
LONGVILLE      CLOUDY    57  36  44 S10       29.56F
GRAND RAPIDS   LGT RAIN  46  33  60 VRB7G22   29.63S
CRANE LAKE     DRIZZLE   39  36  87 CALM      29.73F
ORR            CLOUDY    41  28  60 E9G16     29.64F
COOK           CLOUDY    41  30  65 E10G20    29.68F
WALKER         CLOUDY    56  39  51 SE7       29.54S
$$
MNZ012-019>021-037-242200-
   Northeast Minnesota

CITY           SKY/WX    TMP DP  RH WIND       PRES   REMARKS
DULUTH         CLOUDY    39  31  72 E17G30    29.70F
ELY            CLOUDY    37  28  70 E17       29.73F
HIBBING        CLOUDY    43  31  62 E18G28    29.65F
EVELETH        CLOUDY    42  26  52 E9G16     29.68F
DULUTH HARBOR  CLOUDY    39  36  87 NE26G32   29.75F
TWO HARBORS    CLOUDY    39  34  81 NE16G30   29.73F
SILVER BAY     CLOUDY    36  34  93 NE16G23   29.77F
GRAND MARAIS     N/A     38  31  76 NE21G30   29.84F
G MARAIS ARPRT CLOUDY    34  25  69 NE22      29.81F WCI  22
$$
MNZ029>031-032-039>041-046>048-054>057-064-242200-
   West Central Minnesota

CITY           SKY/WX    TMP DP  RH WIND       PRES   REMARKS
FERGUS FALLS   LGT RAIN  55  45  67 S8        29.50F
WHEATON        CLOUDY    64  37  36 SW8       29.50F
MORRIS         CLOUDY    63  39  42 S20G26    29.50S
ALEXANDRIA     CLOUDY    63  36  36 S21G31    29.52F
ELBOW LAKE     CLOUDY    60  41  49 W10       29.51F
WADENA         CLOUDY    61  37  41 S14       29.51F
GLENWOOD       CLOUDY    64  34  32 S24G33    29.54S
APPLETON       MOSUNNY   64  37  36 S17G23    29.51F
BENSON         CLOUDY    64  30  27 SW24      29.54F
ORTONVILLE     CLOUDY    64  39  39 S16       29.49F
MADISON        CLOUDY    66  41  39 S21G26    29.51F
WILLMAR        FAIR      64  36  34 S9G21     29.58R
$$
MNZ033>034-036-042>043-049>051-058-059-242200-
   Central Minnesota

CITY           SKY/WX    TMP DP  RH WIND       PRES   REMARKS
ST CLOUD       CLOUDY    67  29  24 S16G30    29.56F
SAUK CENTRE    FAIR      66  36  32 S25G31    29.54F
PAYNESVILLE    CLOUDY    67  29  24 S24G33    29.58R
AITKIN         CLOUDY    61  32  33 NE12      29.57F
PINE RIVER     CLOUDY    61  37  41 S10G16    29.59F
BRAINERD       CLOUDY    63  32  31 S13G24    29.56F
STAPLES        CLOUDY    64  30  27 S15G22    29.52F
LONG PRAIRIE   FAIR      64  34  32 SE25G31   29.54F
LITTLE FALLS   CLOUDY    66  30  26 S15G24    29.56R
LITCHFIELD     DRIZZLE   64  37  36 S6G16     29.59S
BUFFALO        CLOUDY    67  28  22 S10G17    29.61S
MAPLE LAKE     LGT RAIN  65  38  37 S12       29.61R
HUTCHINSON     LGT RAIN  62  39  42 S9G22     29.60S
$$
MNZ037-044-045-052-053-242200-
   East Central Minnesota

CITY           SKY/WX    TMP DP  RH WIND       PRES   REMARKS
PRINCETON      CLOUDY    70  32  24 S15G26    29.59F
MORA           CLOUDY    64  32  29 S18       29.62F
CAMBRIDGE      CLOUDY    70  45  40 S15G23    29.59F
RUSH CITY      CLOUDY    68  32  26 SE13      29.62F
MOOSE LAKE     CLOUDY    43  32  65 NE12G20   29.63F
HINCKLEY       CLOUDY    68  34  28 S16G25    29.61F
CLOQUET        CLOUDY    39  28  65 E16G28    29.67F
MCGREGOR       CLOUDY    48  34  57 E17G23    29.62F
$$
MNZ071>073-080-081-089-090-097-098-242200-
   Southwest Minnesota

CITY           SKY/WX    TMP DP  RH WIND       PRES   REMARKS
MONTEVIDEO     CLOUDY    63  39  42 SW14G20   29.54S
GRANITE FALLS  CLOUDY    65  41  41 S20       29.57F
CANBY          CLOUDY    67  39  36 S23G29    29.53F
MARSHALL       CLOUDY    65  40  39 SW18      29.54F
REDWOOD FALLS  CLOUDY    62  39  42 SW9       29.56F
OLIVIA         CLOUDY    63  36  36 SW14G20   29.57S
PIPESTONE      CLOUDY    64  36  34 SW13      29.53F
WINDOM         CLOUDY    66  30  26 S9        29.56F
WORTHINGTON    CLOUDY    66  36  32 S21G36    29.55F
JACKSON        CLOUDY    68  30  24 S17G30    29.58F
TRACY          CLOUDY    64  44  49 SW13      29.56F
SLAYTON        CLOUDY    61  41  46 S6        29.56F
$$
MNZ065>067-074>077-082>085-091>093-242200-
   South Central Minnesota

CITY           SKY/WX    TMP DP  RH WIND       PRES   REMARKS
MANKATO        CLOUDY    68  28  22 S14       29.60S
NEW ULM        LGT RAIN  63  34  34 S12       29.59S
ST JAMES       CLOUDY    68  28  22 S22G29    29.58F
FAIRMONT       CLOUDY    69  27  20 S22G35    29.58F
GLENCOE        RAIN      67  37  33 S10G24    29.59F
FARIBAULT      CLOUDY    68  30  24 S23G30    29.63F
OWATONNA       CLOUDY    68  25  19 S21G26    29.62F
WASECA         CLOUDY    68  30  24 S17G26    29.62F
ALBERT LEA     CLOUDY    68  19  15 S21G30    29.61F
$$
MNZ078>079-086>088-094>096-242200-
   Southeast Minnesota

CITY           SKY/WX    TMP DP  RH WIND       PRES   REMARKS
ROCHESTER      CLOUDY    68  30  24 S26G36    29.65F
RED WING       CLOUDY    72  23  16 S17G23    29.63F
STANTON        CLOUDY    69  28  21 S18G25    29.61F
DODGE CENTER   CLOUDY    66  28  24 SE24G35   29.64F
WINONA         CLOUDY    72  32  23 S14G22    29.68F
AUSTIN         PTSUNNY   70  27  19 S20G28    29.64F
PRESTON        CLOUDY    69  30  23 S24G30    29.68F
$$
ABBREVIATIONS USED IN REMARKS
   TC - TEMPERATURES IN CELSIUS
  WCI - WIND CHILL INDEX
   HX - HEAT INDEX
  VSB - VISIBILITY
$$




USA.gov is the U.S. government's official web portal to all federal, state and local government web resources and services.